Location: Bay Ridge
(40.6340°N, 74.0146°W)
Time: 20:02:30
(UTC+00:00)

ALOS - Pass Details

Date: 15 November 2019
Orbit: 683 x 685 km, 97.8° (Epoch: 10 December)

Event Time Altitude Azimuth Distance (km) Brightness Sun altitude
Rises 10:18:39 0° 13° (NNE) 3,056 5.6 -16.0°
Reaches altitude 10° 10:20:54 10° 14° (NNE) 2,136 4.9 -15.5°
Maximum altitude 10:25:35 82° 102° (ESE) 696 2.3 -14.7°
Drops below altitude 10° 10:30:14 10° 191° (S) 2,121 4.8 -13.8°
Sets 10:32:28 0° 192° (SSW) 3,032 5.6 -13.4°
